Total_Precipitation_Accumulation
0.87 0.93 0.92 0.97 1.07 1.35 1.57 1.50 1.32 1.32 1.36 1.32 1.24 1.32 1.47 1.61 1.72 1.82 1.87 1.87 1.88 1.99 1.94 1.87 1.93 2.03 2.25 2.20 2.18 2.11 1.99 1.87 1.76 1.56 1.22 1.01 1.03 1.04 0.97 0.82 0.67 0.59 0.50
0.70 0.77 0.84 0.85 0.94 1.07 1.19 1.21 1.14 1.06 1.03 1.08 1.12 1.13 1.22 1.38 1.49 1.53 1.56 1.61 1.65 1.73 1.77 1.70 1.70 1.78 1.90 2.09 2.16 2.10 2.06 1.96 1.88 1.78 1.47 1.16 1.00 0.99 0.97 0.97 0.80 0.63 0.53
0.64 0.69 0.77 0.80 0.82 0.84 0.85 0.78 0.81 0.84 0.90 0.95 1.06 1.13 1.21 1.28 1.42 1.45 1.44 1.40 1.43 1.47 1.57 1.62 1.64 1.68 1.70 1.80 1.78 1.84 1.92 2.04 2.05 1.91 1.69 1.42 1.24 1.10 1.00 0.95 0.87 0.80 0.67
0.74 0.81 0.86 0.87 0.87 0.87 0.85 0.81 0.80 0.82 0.88 0.98 1.15 1.23 1.24 1.26 1.26 1.32 1.38 1.34 1.25 1.21 1.24 1.27 1.38 1.48 1.52 1.66 1.62 1.60 1.72 1.91 2.12 2.08 1.90 1.62 1.44 1.31 1.16 1.07 1.06 0.95 0.84
0.65 0.77 0.83 0.86 0.87 0.84 0.77 0.75 0.79 0.76 0.75 0.88 1.05 1.21 1.25 1.23 1.19 1.27 1.33 1.34 1.27 1.14 1.09 1.11 1.14 1.26 1.50 1.57 1.49 1.61 1.74 1.77 1.88 1.94 1.90 1.77 1.56 1.38 1.17 1.05 1.05 1.07 0.98
0.55 0.65 0.81 0.87 0.80 0.76 0.69 0.68 0.70 0.69 0.66 0.75 0.90 1.07 1.16 1.15 1.53 1.52 1.35 1.33 1.29 1.15 1.05 1.05 1.01 1.00 1.20 1.45 1.53 1.57 1.70 1.79 1.79 1.75 1.76 1.67 1.52 1.40 1.34 1.26 1.16 1.07 1.02
0.48 0.60 0.80 0.81 0.70 0.65 0.71 0.75 0.71 0.69 0.70 0.74 0.78 0.80 0.89 1.18 1.23 1.03 1.08 1.12 1.21 1.11 0.98 0.91 0.82 0.79 0.92 1.00 1.13 1.21 1.40 1.68 1.82 1.75 1.61 1.52 1.56 1.45 1.37 1.29 1.20 1.12 1.03
0.41 0.50 0.65 0.68 0.66 0.69 0.70 0.68 0.63 0.59 0.57 0.61 0.63 0.67 0.74 0.89 0.89 0.83 0.93 0.88 1.01 1.01 0.91 0.86 0.82 0.78 0.84 0.90 1.01 1.11 1.14 1.23 1.41 1.40 1.33 1.36 1.43 1.48 1.41 1.36 1.39 1.35 1.26
0.28 0.37 0.46 0.50 0.54 0.57 0.56 0.56 0.52 0.49 0.50 0.52 0.56 0.63 0.72 0.72 0.74 0.72 0.78 0.88 1.02 0.98 0.88 0.86 0.83 0.81 0.96 1.03 0.98 0.99 1.10 1.13 1.25 1.34 1.47 1.48 1.38 1.31 1.32 1.30 1.35 1.35 1.31
0.20 0.27 0.34 0.37 0.41 0.43 0.48 0.51 0.51 0.48 0.46 0.46 0.49 0.53 0.61 0.64 0.76 0.64 0.72 0.89 1.00 1.01 0.97 0.89 0.97 0.95 1.05 1.03 0.96 1.03 1.13 1.02 0.96 1.01 1.09 1.15 1.06 1.03 1.13 1.07 1.14 1.19 1.11
0.11 0.16 0.23 0.30 0.38 0.45 0.51 0.52 0.55 0.52 0.47 0.46 0.54 0.55 0.54 0.64 0.76 0.71 0.73 0.80 0.99 1.01 1.02 0.98 0.88 0.93 0.91 0.96 1.03 1.09 1.27 1.11 0.96 0.99 1.05 1.05 0.96 0.91 0.91 0.95 1.01 1.07 1.03
0.06 0.11 0.18 0.26 0.33 0.42 0.51 0.54 0.54 0.54 0.53 0.54 0.56 0.59 0.57 0.56 0.63 0.67 0.68 0.75 0.86 0.88 0.96 0.91 0.84 0.87 0.75 0.77 0.84 0.98 1.25 1.13 0.94 0.98 1.03 1.03 0.97 0.90 0.89 0.88 0.93 0.96 0.94
0.03 0.06 0.11 0.15 0.19 0.25 0.33 0.41 0.47 0.51 0.53 0.54 0.58 0.66 0.68 0.62 0.65 0.75 0.61 0.58 0.65 0.69 0.70 0.78 0.74 0.71 0.64 0.61 0.69 0.81 0.95 1.07 1.03 0.97 0.93 0.90 0.88 0.86 0.86 0.82 0.82 0.85 0.84
0.01 0.03 0.05 0.06 0.07 0.10 0.20 0.28 0.35 0.42 0.48 0.55 0.62 0.70 0.78 0.73 0.65 0.60 0.52 0.49 0.52 0.49 0.45 0.45 0.48 0.53 0.52 0.53 0.59 0.64 0.78 0.96 1.04 0.96 0.85 0.83 0.85 0.83 0.81 0.75 0.75 0.78 0.78
0.01 0.01 0.02 0.04 0.06 0.08 0.14 0.22 0.27 0.34 0.37 0.41 0.52 0.64 0.68 0.66 0.65 0.71 0.69 0.65 0.61 0.58 0.53 0.47 0.44 0.47 0.52 0.57 0.60 0.61 0.69 0.81 0.86 0.83 0.77 0.73 0.77 0.81 0.80 0.72 0.66 0.67 0.66
0.06 0.03 0.02 0.03 0.06 0.08 0.11 0.13 0.13 0.16 0.16 0.20 0.25 0.30 0.34 0.37 0.39 0.38 0.45 0.52 0.51 0.49 0.60 0.65 0.62 0.64 0.64 0.61 0.62 0.57 0.53 0.58 0.69 0.73 0.71 0.66 0.65 0.70 0.76 0.74 0.69 0.67 0.64
0.14 0.11 0.07 0.05 0.05 0.06 0.07 0.10 0.11 0.07 0.05 0.07 0.09 0.14 0.20 0.21 0.22 0.22 0.25 0.33 0.41 0.46 0.61 0.64 0.56 0.50 0.49 0.47 0.49 0.49 0.48 0.47 0.50 0.58 0.61 0.62 0.59 0.63 0.72 0.77 0.75 0.75 0.73
0.03 0.03 0.05 0.08 0.05 0.04 0.07 0.13 0.19 0.21 0.15 0.08 0.04 0.06 0.11 0.14 0.16 0.18 0.20 0.25 0.28 0.33 0.42 0.49 0.45 0.40 0.35 0.34 0.33 0.31 0.34 0.38 0.41 0.44 0.49 0.52 0.56 0.59 0.65 0.72 0.75 0.72 0.71
0.01 0.03 0.09 0.10 0.06 0.05 0.10 0.18 0.20 0.19 0.18 0.12 0.06 0.03 0.04 0.07 0.08 0.10 0.13 0.19 0.19 0.18 0.20 0.28 0.31 0.31 0.27 0.22 0.18 0.16 0.17 0.18 0.22 0.29 0.36 0.41 0.45 0.50 0.55 0.61 0.65 0.70 0.70
0.02 0.02 0.09 0.14 0.08 0.08 0.10 0.10 0.10 0.12 0.10 0.07 0.06 0.05 0.04 0.06 0.07 0.05 0.06 0.08 0.09 0.09 0.11 0.16 0.19 0.20 0.18 0.17 0.14 0.11 0.12 0.14 0.15 0.18 0.25 0.32 0.35 0.36 0.39 0.46 0.53 0.56 0.55
0.06 0.03 0.03 0.14 0.17 0.14 0.12 0.10 0.11 0.13 0.09 0.05 0.03 0.01 0.02 0.05 0.07 0.07 0.05 0.07 0.08 0.09 0.10 0.10 0.11 0.16 0.14 0.13 0.13 0.13 0.12 0.12 0.12 0.14 0.17 0.21 0.25 0.27 0.29 0.31 0.33 0.38 0.43
0.02 0.03 0.04 0.13 0.18 0.14 0.11 0.11 0.12 0.10 0.08 0.05 0.03 0.01 0.02 0.04 0.06 0.07 0.05 0.07 0.08 0.09 0.09 0.08 0.10 0.13 0.15 0.12 0.12 0.13 0.15 0.13 0.12 0.13 0.16 0.19 0.20 0.20 0.21 0.22 0.24 0.26 0.28
0.01 0.02 0.03 0.07 0.08 0.04 0.05 0.08 0.09 0.09 0.06 0.04 0.03 0.02 0.03 0.04 0.04 0.05 0.06 0.09 0.12 0.12 0.10 0.08 0.10 0.14 0.17 0.18 0.16 0.18 0.18 0.17 0.15 0.14 0.15 0.18 0.20 0.22 0.21 0.21 0.22 0.25 0.28
0.01 0.01 0.02 0.04 0.04 0.05 0.08 0.09 0.07 0.06 0.06 0.04 0.03 0.04 0.04 0.05 0.05 0.05 0.06 0.09 0.12 0.13 0.10 0.09 0.10 0.12 0.16 0.20 0.22 0.23 0.22 0.21 0.16 0.14 0.14 0.16 0.18 0.19 0.20 0.22 0.24 0.26 0.29
0.02 0.01 0.02 0.03 0.04 0.05 0.05 0.07 0.07 0.06 0.07 0.06 0.06 0.04 0.05 0.06 0.07 0.05 0.04 0.06 0.08 0.09 0.08 0.09 0.11 0.15 0.18 0.20 0.23 0.26 0.32 0.31 0.25 0.20 0.17 0.17 0.18 0.20 0.23 0.25 0.28 0.32 0.36
0.02 0.01 0.02 0.04 0.05 0.06 0.06 0.07 0.06 0.06 0.07 0.07 0.06 0.06 0.07 0.07 0.06 0.05 0.05 0.06 0.06 0.07 0.10 0.11 0.13 0.16 0.19 0.20 0.19 0.21 0.24 0.23 0.22 0.22 0.18 0.17 0.19 0.22 0.25 0.29 0.32 0.37 0.42